QPF
0.00 0.00 0.00 0.00 0.00 0.00 0.00 0.00 0.02 0.02 0.00 0.08 0.18 0.21 0.17 0.08 0.07 0.09 0.06 0.06 0.07 0.05
0.01 0.02 0.02 0.03 0.00 0.00 0.06 0.02 0.18 0.23 0.15 0.15 0.17 0.12 0.13 0.11 0.06 0.06 0.05 0.05 0.05 0.03
0.00 0.01 0.00 0.00 0.05 0.10 0.13 0.07 0.03 0.03 0.06 0.10 0.09 0.06 0.06 0.06 0.08 0.05 0.05 0.07 0.04 0.03
0.00 0.02 0.12 0.10 0.13 0.17 0.11 0.02 0.00 0.00 0.00 0.00 0.00 0.00 0.00 0.00 0.01 0.00 0.01 0.01 0.03 0.04
0.02 0.09 0.14 0.05 0.02 0.01 0.00 0.00 0.00 0.00 0.00 0.00 0.00 0.00 0.01 0.00 0.00 0.01 0.01 0.02 0.05 0.06
0.03 0.04 0.01 0.00 0.00 0.00 0.00 0.00 0.00 0.00 0.00 0.00 0.00 0.00 0.01 0.01 0.00 0.00 0.00 0.01 0.01 0.01
0.00 0.00 0.00 0.00 0.00 0.00 0.00 0.00 0.00 0.00 0.00 0.00 0.00 0.00 0.00 0.00 0.00 0.00 0.00 0.00 0.00 0.00
0.00 0.00 0.00 0.00 0.00 0.00 0.00 0.00 0.00 0.00 0.00 0.00 0.00 0.00 0.00 0.00 0.00 0.00 0.00 0.00 0.00 0.00
0.00 0.00 0.00 0.00 0.00 0.00 0.00 0.00 0.00 0.00 0.00 0.00 0.00 0.00 0.00 0.00 0.00 0.00 0.00 0.00 0.00 0.00
0.00 0.00 0.00 0.00 0.00 0.00 0.00 0.00 0.00 0.00 0.00 0.00 0.00 0.00 0.00 0.00 0.00 0.00 0.00 0.00 0.00 0.00
0.00 0.00 0.00 0.00 0.00 0.00 0.00 0.00 0.00 0.00 0.00 0.00 0.00 0.00 0.00 0.00 0.00 0.00 0.00 0.00 0.00 0.00
0.00 0.00 0.00 0.00 0.00 0.00 0.00 0.00 0.00 0.00 0.00 0.00 0.00 0.00 0.00 0.00 0.00 0.00 0.00 0.00 0.00 0.00
0.00 0.00 0.00 0.00 0.00 0.00 0.00 0.00 0.00 0.00 0.00 0.00 0.00 0.00 0.00 0.00 0.00 0.00 0.00 0.00 0.00 0.00
0.00 0.00 0.00 0.00 0.00 0.00 0.00 0.00 0.00 0.00 0.00 0.00 0.00 0.00 0.00 0.00 0.00 0.00 0.00 0.00 0.00 0.00
MSLP
1014.00 1014.16 1014.10 1013.84 1013.76 1013.55 1013.65 1013.35 1013.55 1013.37 1013.33 1013.73 1013.97 1014.26 1014.69 1015.02 1015.00 1014.96 1015.04 1015.02 1014.97 1015.05
1013.68 1013.84 1013.68 1013.81 1013.81 1013.49 1013.84 1013.53 1013.30 1012.65 1013.12 1014.08 1014.36 1014.53 1014.79 1014.87 1014.87 1014.97 1014.90 1014.89 1014.93 1014.80
1013.16 1013.46 1013.49 1013.40 1013.62 1014.13 1014.50 1014.48 1014.47 1014.34 1014.50 1014.66 1014.89 1015.01 1015.10 1015.04 1015.14 1015.21 1015.10 1014.98 1014.89 1014.90
1012.22 1012.53 1013.33 1014.10 1014.58 1015.04 1015.07 1015.19 1015.29 1015.25 1015.31 1015.37 1015.43 1015.42 1015.28 1015.16 1015.17 1015.16 1015.08 1015.09 1015.19 1015.30
1012.95 1013.79 1014.39 1014.84 1015.32 1015.66 1015.88 1016.05 1016.12 1016.05 1016.12 1016.09 1016.06 1015.92 1015.83 1015.86 1015.98 1015.89 1015.93 1015.97 1016.06 1016.22
1013.74 1014.58 1015.41 1015.91 1016.13 1016.20 1016.34 1016.48 1016.51 1016.51 1016.64 1016.75 1016.69 1016.62 1016.56 1016.52 1016.49 1016.59 1016.75 1017.05 1016.93 1016.96
1014.52 1015.38 1016.29 1016.77 1016.79 1016.86 1017.03 1017.20 1017.24 1017.26 1017.31 1017.37 1017.27 1017.24 1017.13 1017.14 1017.15 1017.20 1017.16 1017.49 1017.61 1017.65
1015.47 1016.40 1017.01 1017.37 1017.50 1017.61 1017.63 1017.60 1017.71 1017.86 1017.92 1017.88 1018.01 1018.23 1017.78 1017.86 1017.95 1017.90 1017.81 1017.68 1017.76 1018.05
1016.55 1017.13 1017.40 1017.61 1017.86 1017.97 1017.98 1018.11 1018.20 1018.36 1018.50 1018.53 1018.73 1018.64 1018.52 1018.38 1018.39 1018.36 1018.43 1018.40 1018.27 1018.21
1016.94 1017.07 1017.41 1017.73 1018.03 1018.34 1018.45 1018.60 1018.80 1019.01 1019.16 1019.34 1019.46 1019.27 1019.02 1018.85 1018.98 1019.08 1019.12 1019.08 1019.06 1018.94
1016.88 1017.28 1017.62 1017.87 1018.13 1018.39 1018.56 1018.89 1019.16 1019.41 1019.61 1019.78 1020.14 1019.91 1019.54 1019.18 1019.16 1019.48 1019.78 1019.70 1019.75 1019.65
1016.99 1017.30 1017.59 1017.92 1018.24 1018.54 1018.77 1019.02 1019.43 1019.78 1019.90 1020.13 1020.35 1019.96 1019.43 1019.21 1019.17 1019.43 1019.94 1020.09 1020.06 1020.02
1017.03 1017.38 1017.77 1018.12 1018.43 1018.67 1018.97 1019.42 1019.96 1020.25 1020.45 1020.57 1020.52 1020.20 1019.81 1019.52 1019.38 1019.45 1019.91 1020.22 1020.35 1020.21
1017.12 1017.53 1017.95 1018.32 1018.67 1019.10 1019.54 1019.98 1020.37 1020.69 1020.88 1020.98 1020.96 1020.93 1020.65 1020.35 1020.04 1019.97 1020.09 1020.42 1020.43 1020.32
Thickness
5805 5804 5805 5809 5809 5812 5810 5815 5818 5818 5817 5810 5804 5799 5796 5794 5792 5791 5787 5784 5780 5777
5810 5809 5810 5809 5810 5814 5811 5815 5811 5799 5815 5805 5802 5798 5795 5792 5789 5786 5785 5782 5779 5777
5815 5814 5815 5816 5813 5810 5806 5806 5805 5805 5803 5800 5797 5794 5790 5788 5785 5780 5779 5777 5775 5773
5824 5823 5815 5809 5806 5801 5802 5800 5797 5797 5794 5792 5790 5788 5786 5784 5781 5777 5775 5773 5768 5765
5819 5811 5807 5802 5799 5796 5792 5791 5789 5788 5785 5784 5782 5780 5778 5774 5770 5768 5764 5762 5759 5754
5813 5806 5799 5794 5792 5791 5789 5786 5785 5783 5779 5775 5774 5771 5770 5767 5764 5760 5756 5750 5749 5746
5808 5801 5793 5789 5788 5786 5784 5780 5778 5776 5772 5769 5766 5764 5761 5758 5754 5751 5749 5743 5741 5737
5801 5793 5787 5783 5781 5779 5778 5776 5772 5767 5764 5761 5755 5749 5750 5746 5742 5740 5739 5739 5736 5730
5792 5787 5784 5781 5777 5775 5772 5768 5765 5759 5755 5751 5745 5741 5739 5739 5735 5733 5729 5727 5726 5725
5789 5786 5783 5779 5775 5770 5766 5762 5757 5751 5746 5741 5736 5733 5732 5733 5729 5724 5720 5718 5716 5714
5788 5784 5780 5776 5772 5767 5762 5756 5750 5744 5739 5735 5728 5726 5726 5727 5724 5719 5712 5710 5706 5703
5786 5781 5778 5773 5768 5762 5757 5751 5745 5739 5734 5728 5724 5722 5724 5723 5721 5713 5706 5701 5697 5694
5785 5779 5774 5769 5764 5759 5753 5745 5738 5731 5726 5721 5719 5718 5718 5718 5716 5710 5702 5695 5690 5688
5782 5777 5772 5766 5760 5752 5745 5737 5730 5724 5719 5715 5711 5708 5708 5707 5705 5700 5694 5688 5684 5682